Time,TemperatureF,DewpointF,PressureIn,WindDirection,WindDirectionDegrees,WindSpeedMPH,WindSpeedGustMPH,Humidity,HourlyPrecipIn,Conditions,Clouds,dailyrainin,SoftwareType,DateUTC
2013-03-17 00:00:00,33.1,29.0,29.94,North,360,0.0,0.0,83,0.00,,,0.00,weatherlink.com 1.10,2013-03-17 07:00:00,
2013-03-17 00:15:00,32.7,28.0,29.94,North,360,0.0,1.0,84,0.00,,,0.00,weatherlink.com 1.10,2013-03-17 07:15:00,
2013-03-17 00:31:00,32.3,28.0,29.93,North,360,0.0,1.0,84,0.00,,,0.00,weatherlink.com 1.10,2013-03-17 07:31:00,
2013-03-17 00:46:00,32.0,28.0,29.93,North,360,0.0,1.0,85,0.00,,,0.00,weatherlink.com 1.10,2013-03-17 07:46:00,
2013-03-17 01:01:00,31.6,28.0,29.93,North,360,0.0,1.0,85,0.00,,,0.00,weatherlink.com 1.10,2013-03-17 08:01:00,
2013-03-17 01:16:00,31.3,27.0,29.92,North,360,0.0,1.0,85,0.00,,,0.00,weatherlink.com 1.10,2013-03-17 08:16:00,
2013-03-17 01:31:00,31.1,27.0,29.92,North,360,0.0,1.0,86,0.00,,,0.00,weatherlink.com 1.10,2013-03-17 08:31:00,
2013-03-17 01:46:00,30.8,27.0,29.92,North,360,0.0,1.0,86,0.00,,,0.00,weatherlink.com 1.10,2013-03-17 08:46:00,
2013-03-17 02:16:00,30.4,27.0,29.91,North,360,0.0,1.0,87,0.00,,,0.00,weatherlink.com 1.10,2013-03-17 09:16:00,
2013-03-17 02:46:00,30.7,27.0,29.91,North,360,0.0,2.0,87,0.00,,,0.00,weatherlink.com 1.10,2013-03-17 09:46:00,
2013-03-17 03:01:00,31.1,28.0,29.92,North,360,0.0,1.0,87,0.00,,,0.00,weatherlink.com 1.10,2013-03-17 10:01:00,
2013-03-17 03:31:00,31.3,28.0,29.91,North,360,0.0,2.0,86,0.00,,,0.00,weatherlink.com 1.10,2013-03-17 10:31:00,
2013-03-17 03:46:00,31.2,28.0,29.90,North,360,0.0,1.0,86,0.00,,,0.00,weatherlink.com 1.10,2013-03-17 10:46:00,
2013-03-17 04:01:00,30.8,27.0,29.89,North,360,0.0,1.0,86,0.00,,,0.00,weatherlink.com 1.10,2013-03-17 11:01:00,
2013-03-17 04:16:00,30.3,27.0,29.89,North,360,0.0,1.0,87,0.00,,,0.00,weatherlink.com 1.10,2013-03-17 11:16:00,
2013-03-17 04:31:00,29.9,27.0,29.89,North,360,0.0,1.0,87,0.00,,,0.00,weatherlink.com 1.10,2013-03-17 11:31:00,
2013-03-17 05:01:00,29.6,27.0,29.89,North,360,0.0,1.0,88,0.00,,,0.00,weatherlink.com 1.10,2013-03-17 12:01:00,
2013-03-17 05:16:00,29.7,27.0,29.90,North,360,0.0,1.0,88,0.00,,,0.00,weatherlink.com 1.10,2013-03-17 12:16:00,
2013-03-17 05:31:00,29.5,26.0,29.90,North,360,1.0,1.0,88,0.00,,,0.00,weatherlink.com 1.10,2013-03-17 12:31:00,
2013-03-17 05:46:00,29.2,26.0,29.91,North,360,0.0,1.0,88,0.00,,,0.00,weatherlink.com 1.10,2013-03-17 12:46:00,
2013-03-17 06:01:00,28.9,26.0,29.91,North,360,0.0,1.0,88,0.00,,,0.00,weatherlink.com 1.10,2013-03-17 13:01:00,
2013-03-17 06:16:00,28.7,26.0,29.92,North,360,0.0,1.0,88,0.00,,,0.00,weatherlink.com 1.10,2013-03-17 13:16:00,
2013-03-17 06:31:00,28.7,26.0,29.92,North,360,1.0,2.0,88,0.00,,,0.00,weatherlink.com 1.10,2013-03-17 13:31:00,
2013-03-17 06:46:00,28.8,26.0,29.93,North,360,0.0,2.0,88,0.00,,,0.00,weatherlink.com 1.10,2013-03-17 13:46:00,
2013-03-17 07:01:00,28.9,26.0,29.93,North,360,0.0,2.0,88,0.00,,,0.00,weatherlink.com 1.10,2013-03-17 14:01:00,
2013-03-17 07:16:00,29.8,27.0,29.94,North,360,0.0,1.0,88,0.00,,,0.00,weatherlink.com 1.10,2013-03-17 14:16:00,
2013-03-17 07:31:00,31.4,28.0,29.95,North,360,0.0,1.0,86,0.00,,,0.00,weatherlink.com 1.10,2013-03-17 14:31:00,
2013-03-17 07:47:00,32.8,29.0,29.96,North,360,0.0,1.0,86,0.00,,,0.00,weatherlink.com 1.10,2013-03-17 14:47:00,
2013-03-17 08:02:00,34.8,31.0,29.96,North,360,0.0,0.0,85,0.00,,,0.00,weatherlink.com 1.10,2013-03-17 15:02:00,
2013-03-17 08:17:00,36.9,32.0,29.96,North,360,0.0,0.0,83,0.00,,,0.00,weatherlink.com 1.10,2013-03-17 15:17:00,
2013-03-17 08:32:00,40.2,31.0,29.96,North,360,1.0,2.0,71,0.00,,,0.00,weatherlink.com 1.10,2013-03-17 15:32:00,
2013-03-17 08:47:00,44.9,31.0,29.95,South,169,0.0,2.0,59,0.00,,,0.00,weatherlink.com 1.10,2013-03-17 15:47:00,
2013-03-17 09:02:00,47.7,30.0,29.96,SSW,199,1.0,4.0,50,0.00,,,0.00,weatherlink.com 1.10,2013-03-17 16:02:00,
2013-03-17 09:17:00,49.9,29.0,29.95,West,259,3.0,4.0,44,0.00,,,0.00,weatherlink.com 1.10,2013-03-17 16:17:00,
2013-03-17 09:32:00,50.5,27.0,29.95,WSW,252,2.0,7.0,41,0.00,,,0.00,weatherlink.com 1.10,2013-03-17 16:32:00,
2013-03-17 09:47:00,50.8,28.0,29.95,WSW,251,2.0,8.0,41,0.00,,,0.00,weatherlink.com 1.10,2013-03-17 16:47:00,
2013-03-17 10:02:00,50.7,27.0,29.95,SW,224,4.0,9.0,40,0.00,,,0.00,weatherlink.com 1.10,2013-03-17 17:02:00,
2013-03-17 10:17:00,51.2,29.0,29.95,West,265,3.0,7.0,42,0.00,,,0.00,weatherlink.com 1.10,2013-03-17 17:17:00,
2013-03-17 10:32:00,52.1,28.0,29.96,West,259,4.0,7.0,39,0.00,,,0.00,weatherlink.com 1.10,2013-03-17 17:32:00,
2013-03-17 10:47:00,53.0,28.0,29.96,SW,215,1.0,9.0,39,0.00,,,0.00,weatherlink.com 1.10,2013-03-17 17:47:00,
2013-03-17 11:02:00,53.3,28.0,29.96,SSW,199,4.0,7.0,38,0.00,,,0.00,weatherlink.com 1.10,2013-03-17 18:02:00,
2013-03-17 11:18:00,54.3,28.0,29.96,West,266,4.0,8.0,37,0.00,,,0.00,weatherlink.com 1.10,2013-03-17 18:18:00,
2013-03-17 11:32:00,54.6,28.0,29.96,SSW,210,1.0,5.0,36,0.00,,,0.00,weatherlink.com 1.10,2013-03-17 18:32:00,
2013-03-17 11:47:00,55.0,28.0,29.96,WSW,257,2.0,8.0,36,0.00,,,0.00,weatherlink.com 1.10,2013-03-17 18:47:00,
2013-03-17 12:02:00,56.1,27.0,29.95,SW,220,5.0,7.0,33,0.00,,,0.00,weatherlink.com 1.10,2013-03-17 19:02:00,
2013-03-17 12:17:00,56.9,29.0,29.95,WSW,255,0.0,7.0,35,0.00,,,0.00,weatherlink.com 1.10,2013-03-17 19:17:00,
2013-03-17 12:32:00,57.1,28.0,29.95,West,261,3.0,10.0,33,0.00,,,0.00,weatherlink.com 1.10,2013-03-17 19:32:00,
2013-03-17 12:47:00,57.1,29.0,29.94,SSW,206,3.0,11.0,34,0.00,,,0.00,weatherlink.com 1.10,2013-03-17 19:47:00,
2013-03-17 13:02:00,58.0,28.0,29.93,South,177,4.0,11.0,32,0.00,,,0.00,weatherlink.com 1.10,2013-03-17 20:02:00,
2013-03-17 13:17:00,59.7,28.0,29.93,WSW,254,0.0,9.0,30,0.00,,,0.00,weatherlink.com 1.10,2013-03-17 20:17:00,
2013-03-17 13:33:00,60.7,25.0,29.92,SW,214,4.0,9.0,26,0.00,,,0.00,weatherlink.com 1.10,2013-03-17 20:33:00,
2013-03-17 13:48:00,60.8,18.0,29.91,West,269,4.0,9.0,19,0.00,,,0.00,weatherlink.com 1.10,2013-03-17 20:48:00,
2013-03-17 14:03:00,60.9,21.0,29.91,South,178,5.0,8.0,21,0.00,,,0.00,weatherlink.com 1.10,2013-03-17 21:03:00,
2013-03-17 14:18:00,61.7,19.0,29.91,West,267,6.0,9.0,19,0.00,,,0.00,weatherlink.com 1.10,2013-03-17 21:18:00,
2013-03-17 14:33:00,62.8,20.0,29.90,SW,229,4.0,7.0,19,0.00,,,0.00,weatherlink.com 1.10,2013-03-17 21:33:00,
2013-03-17 14:48:00,63.4,13.0,29.90,WSW,252,8.0,14.0,14,0.00,,,0.00,weatherlink.com 1.10,2013-03-17 21:48:00,
2013-03-17 15:03:00,63.8,10.0,29.90,SSW,198,6.0,12.0,12,0.00,,,0.00,weatherlink.com 1.10,2013-03-17 22:03:00,
2013-03-17 15:18:00,63.2,8.0,29.91,SW,226,6.0,13.0,11,0.00,,,0.00,weatherlink.com 1.10,2013-03-17 22:18:00,
2013-03-17 15:33:00,62.9,9.0,29.91,WSW,253,7.0,12.0,12,0.00,,,0.00,weatherlink.com 1.10,2013-03-17 22:33:00,
2013-03-17 15:48:00,63.0,5.0,29.90,South,177,1.0,16.0,10,0.00,,,0.00,weatherlink.com 1.10,2013-03-17 22:48:00,
2013-03-17 16:03:00,63.0,9.0,29.91,NNW,329,2.0,10.0,12,0.00,,,0.00,weatherlink.com 1.10,2013-03-17 23:03:00,
2013-03-17 16:18:00,61.8,2.0,29.91,SSW,211,7.0,12.0,9,0.00,,,0.00,weatherlink.com 1.10,2013-03-17 23:18:00,
2013-03-17 16:33:00,61.0,4.0,29.92,West,269,3.0,9.0,10,0.00,,,0.00,weatherlink.com 1.10,2013-03-17 23:33:00,
2013-03-17 16:48:00,60.4,1.0,29.92,West,265,5.0,13.0,9,0.00,,,0.00,weatherlink.com 1.10,2013-03-17 23:48:00,
2013-03-17 17:03:00,60.2,3.0,29.93,ENE,75,1.0,13.0,10,0.00,,,0.00,weatherlink.com 1.10,2013-03-18 00:03:00,
2013-03-17 17:18:00,59.8,-2.0,29.93,South,169,1.0,9.0,8,0.00,,,0.00,weatherlink.com 1.10,2013-03-18 00:18:00,
2013-03-17 17:33:00,58.7,-3.0,29.94,West,273,1.0,9.0,8,0.00,,,0.00,weatherlink.com 1.10,2013-03-18 00:33:00,
2013-03-17 17:48:00,58.5,-6.0,29.95,WSW,256,6.0,11.0,7,0.00,,,0.00,weatherlink.com 1.10,2013-03-18 00:48:00,
2013-03-17 18:03:00,57.5,-4.0,29.95,West,259,2.0,9.0,8,0.00,,,0.00,weatherlink.com 1.10,2013-03-18 01:03:00,
2013-03-17 18:18:00,55.9,-3.0,29.96,NW,304,2.0,8.0,9,0.00,,,0.00,weatherlink.com 1.10,2013-03-18 01:18:00,
2013-03-17 18:33:00,55.0,-1.0,29.96,West,266,0.0,5.0,10,0.00,,,0.00,weatherlink.com 1.10,2013-03-18 01:33:00,
2013-03-17 18:48:00,53.8,-2.0,29.96,West,277,0.0,2.0,10,0.00,,,0.00,weatherlink.com 1.10,2013-03-18 01:48:00,
2013-03-17 19:03:00,52.8,-1.0,29.97,WNW,291,0.0,3.0,11,0.00,,,0.00,weatherlink.com 1.10,2013-03-18 02:03:00,
2013-03-17 19:18:00,52.0,1.0,29.97,SW,232,0.0,4.0,12,0.00,,,0.00,weatherlink.com 1.10,2013-03-18 02:18:00,
2013-03-17 19:33:00,51.1,0.0,29.97,WSW,246,0.0,1.0,12,0.00,,,0.00,weatherlink.com 1.10,2013-03-18 02:33:00,
2013-03-17 19:48:00,50.4,-1.0,29.98,NNW,333,0.0,1.0,12,0.00,,,0.00,weatherlink.com 1.10,2013-03-18 02:48:00,
2013-03-17 20:04:00,49.4,0.0,29.98,NNW,333,1.0,1.0,13,0.00,,,0.00,weatherlink.com 1.10,2013-03-18 03:04:00,
2013-03-17 20:19:00,49.1,2.0,29.98,SW,234,0.0,3.0,14,0.00,,,0.00,weatherlink.com 1.10,2013-03-18 03:19:00,
2013-03-17 20:34:00,48.7,1.0,29.98,WSW,255,0.0,2.0,14,0.00,,,0.00,weatherlink.com 1.10,2013-03-18 03:34:00,
2013-03-17 20:49:00,48.0,4.0,29.99,WSW,255,0.0,1.0,16,0.00,,,0.00,weatherlink.com 1.10,2013-03-18 03:49:00,
2013-03-17 21:04:00,47.3,3.0,30.00,WSW,255,0.0,1.0,16,0.00,,,0.00,weatherlink.com 1.10,2013-03-18 04:04:00,
2013-03-17 21:19:00,45.8,7.0,30.01,WSW,255,0.0,1.0,20,0.00,,,0.00,weatherlink.com 1.10,2013-03-18 04:19:00,
2013-03-17 21:34:00,42.7,10.0,30.01,WSW,255,0.0,1.0,26,0.00,,,0.00,weatherlink.com 1.10,2013-03-18 04:34:00,
2013-03-17 21:49:00,39.1,13.0,30.01,North,354,0.0,1.0,35,0.00,,,0.00,weatherlink.com 1.10,2013-03-18 04:49:00,
2013-03-17 22:04:00,36.6,15.0,30.02,North,354,0.0,1.0,42,0.00,,,0.00,weatherlink.com 1.10,2013-03-18 05:04:00,
2013-03-17 22:19:00,34.9,15.0,30.02,North,354,0.0,2.0,45,0.00,,,0.00,weatherlink.com 1.10,2013-03-18 05:19:00,
2013-03-17 22:34:00,33.8,16.0,30.03,North,354,0.0,2.0,48,0.00,,,0.00,weatherlink.com 1.10,2013-03-18 05:34:00,
2013-03-17 22:49:00,32.7,16.0,30.03,North,354,0.0,1.0,50,0.00,,,0.00,weatherlink.com 1.10,2013-03-18 05:49:00,
2013-03-17 23:04:00,31.6,16.0,30.03,North,354,0.0,2.0,52,0.00,,,0.00,weatherlink.com 1.10,2013-03-18 06:04:00,
2013-03-17 23:20:00,30.8,16.0,30.03,North,354,0.0,2.0,54,0.00,,,0.00,weatherlink.com 1.10,2013-03-18 06:20:00,
2013-03-17 23:35:00,30.1,16.0,30.02,North,354,0.0,1.0,56,0.00,,,0.00,weatherlink.com 1.10,2013-03-18 06:35:00,
2013-03-17 23:50:00,29.6,16.0,30.02,North,354,0.0,1.0,58,0.00,,,0.00,weatherlink.com 1.10,2013-03-18 06:50:00,